This demonstration page uses our WeatherBlox Daily Observations layout. Learn more.

Left ArrowRight Arrow

44.8408, -93.29828

Hourly Observations for May 6, 2015

Temp ( °F °C ) Dew Point ( °F °C ) Humidity (%) Winds ( mph kmh ) Pressure ( in mb ) Visibility ( mi km ) Precip ( " mm )
12:53 am 00:53 Cloudy 56 13.3 53 11.7 90 90 SE 14 22 30.12 1020 7 11 0.00 0.00
1:53 am 01:53 Cloudy with Mist and Fog 56 13.3 54 12.2 93 93 ESE 12 19 30.10 1019 5 8 0.00 0.03
2:53 am 02:53 Cloudy with Mist and Fog 56 13.3 54 12.2 93 93 SE 9 15 30.09 1019 4 6 0.00 0.00
3:53 am 03:53 Cloudy with Mist and Fog 56 13.3 54 12.2 93 93 ESE 9 15 30.08 1019 5 8 0.00 0.00
4:53 am 04:53 Cloudy with Mist and Fog 56 13.3 54 12.2 93 93 ESE 13 20 30.06 1018 3 5 0.00 0.00
5:53 am 05:53 Cloudy with Mist and Fog 56 13.3 54 12.2 93 93 SE 9 15 30.06 1018 3 5 0.00 0.00
6:02 am 06:02 Cloudy with Mist and Fog 55 13 54 12 94 94 ESE 13 20 30.06 1018 3 4 0.00 0.00
6:53 am 06:53 Cloudy with Mist and Fog 56 13.3 54 12.2 93 93 SE 10 17 30.07 1018 2 2 0.00 0.00
7:16 am 07:16 Cloudy with Mist and Fog 55 13 54 12 94 94 SE 13 20 30.09 1019 2 3 0.00 0.00
7:53 am 07:53 Cloudy with Mist and Fog 56 13.3 55 12.8 97 97 ESE 13 20 30.08 1019 2 3 0.00 0.00
8:38 am 08:38 Cloudy with Mist and Fog 57 14 55 13 94 94 ESE 10 17 30.03 1017 2 3 0.00 0.00
8:53 am 08:53 Cloudy with Mist and Fog 57 13.9 55 12.8 93 93 SE 12 19 30.08 1019 2 3 0.00 0.00
9:53 am 09:53 Cloudy with Mist and Fog 58 14.4 55 12.8 90 90 ESE 12 19 30.04 1017 3 5 0.00 0.00
10:53 am 10:53 Cloudy with Mist and Fog 60 15.6 57 13.9 90 90 E 14 22 30.04 1017 5 8 0.00 0.03
11:16 am 11:16 Cloudy with Mist and Fog 61 16 57 14 88 88 ESE 16 26 30.00 1016 5 8 0.00 0.00
11:53 am 11:53 Cloudy 64 17.8 58 14.4 81 81 E 16 26 30.01 1016 7 11 0.00 0.00
12:15 pm 12:15 Cloudy 65 18.3 58 14.4 78 78 E 16 26 29.97 1015 7 11 0.00 0.00
12:53 pm 12:53 Cloudy 65 18.3 58 14.4 78 78 ESE 16 26 29.98 1015 7 11 0.00 0.00
1:41 pm 13:41 Cloudy 67 19.4 59 15 76 76 ESE 17 28 29.94 1014 7 11 0.00 0.00
1:53 pm 13:53 Mostly Cloudy 69 20.6 59 15 70 70 ESE 16 26 29.96 1014 7 11 0.00 0.00
2:53 pm 14:53 Mostly Cloudy 73 22.8 58 14.4 59 59 ESE 21 33 29.91 1013 8 13 0.00 0.00
3:53 pm 15:53 Mostly Cloudy 76 24.4 58 14.4 54 54 SE 20 31 29.87 1012 10 16 0.00 0.00
4:53 pm 16:53 Cloudy 75 23.9 57 13.9 54 54 SE 22 35 29.86 1011 10 16 0.00 0.00
5:53 pm 17:53 Cloudy 71 21.7 60 15.6 68 68 SE 17 28 29.87 1012 10 16 0.00 0.03
6:53 pm 18:53 Mostly Cloudy 71 21.7 61 16.1 71 71 ESE 21 33 29.85 1011 8 13 0.00 0.00
7:53 pm 19:53 Cloudy 69 20.6 61 16.1 76 76 SE 15 24 29.86 1011 10 16 0.00 0.00
8:53 pm 20:53 Mostly Cloudy 68 20 60 15.6 76 76 ESE 10 17 29.85 1011 10 16 0.00 0.00
9:53 pm 21:53 Mostly Cloudy 67 19.4 61 16.1 81 81 SE 10 17 29.86 1011 10 16 0.00 0.00
10:53 pm 22:53 Cloudy 67 19.4 60 15.6 79 79 SSE 10 17 29.86 1011 10 16 0.00 0.00
11:53 pm 23:53 Mostly Clear 67 19.4 59 15 76 76 SSE 14 22 29.86 1011 10 16 0.00 0.00

Powered by AerisWeather